Regional Weather Roundup
Issued by NWS

Home | Current Version | Previous Version | Graphics & Text | Print | Product List | Glossary On
Versions: 1 2 3 4 5 6 7 8 9 10 11 12 13 14 15 16 17 18 19 20 21 22 23 24 25 26 27 28 29 30 31 32 33 34 35 36 37 38 39 40 41 42 43 44 45 46 47 48 49 50
000
ASUS43 KMPX 291801
RWRMN
WEATHER ROUNDUP FOR MINNESOTA
NATIONAL WEATHER SERVICE TWIN CITIES/CHANHASSEN MN
100 PM CDT MON AUG 29 2016


NOTE: "FAIR" INDICATES FEW OR NO CLOUDS BELOW 12,000 FEET WITH NO
SIGNIFICANT WEATHER AND/OR OBSTRUCTIONS TO VISIBILITY. N/A MEANS
CURRENT SKY AND/OR WEATHER CONDITIONS ARE NOT AVAILABLE.

MNZ060>063-068>070-291900-
   Twin Cities Metro

CITY           SKY/WX    TMP DP  RH WIND       PRES   REMARKS
TWIN CITIES    PTSUNNY   82  69  64 S13       30.16F
6HR MIN TEMP:  70; 6HR MAX TEMP:  82;

ST PAUL        MOSUNNY   80  70  71 SE17      30.16F
CRYSTAL        CLOUDY    82  67  60 S18       30.13F
BLAINE         PTSUNNY   84  70  61 S18G24    30.14
LAKEVILLE      MOSUNNY   77  72  83 S7        30.19F
EDEN PRAIRIE   CLOUDY    83  70  64 S15       30.15F
6HR MIN TEMP:  69; 6HR MAX TEMP:  83;

LAKEVILLE      MOSUNNY   77  72  83 S7        30.19F
SOUTH ST PAUL  PTSUNNY   80  69  67 S8G16     30.16F
LAKE ELMO      FAIR      79  70  73 S17       30.17F
$$
MNZ001>005-007-008-013>017-022>024-027-028-291900-
   Northwest Minnesota

CITY           SKY/WX    TMP DP  RH WIND       PRES   REMARKS
BEMIDJI        PTSUNNY   78  68  72 W16       30.15R
HALLOCK        SUNNY     73  61  64 NW12G17   30.16S
ROSEAU         SUNNY     75  66  73 NW10G16   30.13F
WARROAD        MOSUNNY   73  70  88 W10       30.13F
THIEF RVR FALL CLOUDY    72  66  81 W12       30.17S
CROOKSTON      MOSUNNY   75  66  73 N10       30.16F
FOSSTON        CLOUDY    72  66  83 W8        30.17R
DETROIT LAKES  CLOUDY    77  70  78 W10       30.18R
MOORHEAD       MOSUNNY   81  70  69 W9        30.16S
PARK RAPIDS    MOSUNNY   82  69  64 W13       30.16S
MAHNOMEN       CLOUDY    74  70  85 W12G17    30.16S
$$
MNZ006-009>011-018-025>026-291900-
   North Central Minnesota

CITY           SKY/WX    TMP DP  RH WIND       PRES   REMARKS
BAUDETTE       PTSUNNY   73  68  84 NW8       30.11S
FLAG ISLAND    PTSUNNY   72  63  73 CALM      30.10F
INTL FALLS     MOSUNNY   78  66  66 W10       30.10S
6HR MIN TEMP:  63; 6HR MAX TEMP:  78; 6HR PCP: TRACE;

WASKISH          N/A     75  66  73 SW12      30.13S
BIG FORK       MOSUNNY   77  66  69 W8        30.13S
LONGVILLE      SUNNY     79  68  69 SW9       30.15S
GRAND RAPIDS   CLOUDY    76  66  71 VRB6      30.16S
ORR            CLOUDY    75  63  64 W3        30.09F
COOK           CLOUDY    75  64  69 W7        30.13S
WALKER         FAIR      78  69  73 W10G18    30.15R
$$
MNZ012-019>021-037-291900-
   Northeast Minnesota

CITY           SKY/WX    TMP DP  RH WIND       PRES   REMARKS
DULUTH         CLOUDY    74  64  71 W12       30.13F
6HR MIN TEMP:  62; 6HR MAX TEMP:  75; 6HR PCP: TRACE;

ELY            CLOUDY    73  63  68 W7        30.13S
HIBBING        MOSUNNY   73  64  73 W10       30.13S
EVELETH        MOSUNNY   73  63  70 W7        30.14S
DULUTH HARBOR  CLOUDY    73  66  78 SW12      30.12S
TWO HARBORS    CLOUDY    77  66  69 S3        30.11R
SILVER BAY     CLOUDY    73  64  73 CALM      30.12S
GRAND MARAIS     N/A     69  62  78 SW5       30.11S
G MARAIS ARPRT CLOUDY    73  57  56 SW5       30.17R
$$
MNZ029>031-032-039>041-046>048-054>057-064-291900-
   West Central Minnesota

CITY           SKY/WX    TMP DP  RH WIND       PRES   REMARKS
FERGUS FALLS   MOSUNNY   82  68  61 SW10G17   30.15S
WHEATON        SUNNY     82  73  74 S10G16    30.15S
ALEXANDRIA     SUNNY     80  69  69 SW10      30.18S
ELBOW LAKE     FAIR      81  70  68 SW8       30.16S HAZE
WADENA         SUNNY     79  64  61 SW12      30.16F
GLENWOOD       SUNNY     82  72  69 S13       30.17S
APPLETON       SUNNY     82  70  65 S13G20    30.14S
BENSON         SUNNY     82  70  65 SW15      30.15S
ORTONVILLE     SUNNY     81  70  69 S8        30.14S
MADISON        SUNNY     81  70  69 S14       30.15S
WILLMAR        FAIR      82  72  69 S9G16     30.16F
$$
MNZ033>034-036-042>043-049>051-058-059-291900-
   Central Minnesota

CITY           SKY/WX    TMP DP  RH WIND       PRES   REMARKS
ST CLOUD       SUNNY     82  72  71 S10       30.14R
6HR MIN TEMP:  67; 6HR MAX TEMP:  82; 6HR PCP:  0.05;

SAUK CENTRE    FAIR      80  71  73 S13       30.16S
PAYNESVILLE    SUNNY     82  69  65 S10G16    30.16S
AITKIN         SUNNY     79  63  57 SW6       30.15R
PINE RIVER     SUNNY     79  66  65 W7        30.18S
BRAINERD       SUNNY     78  65  63 SW15      30.16R
STAPLES        SUNNY     81  64  57 SW9       30.16S
LONG PRAIRIE   FAIR      79  70  73 SE12G17   30.17S
LITTLE FALLS   SUNNY     79  64  61 SW7       30.16S
LITCHFIELD     SUNNY     82  72  69 S7        30.16S
BUFFALO        SUNNY     82  68  64 S13G18    30.16S
MAPLE LAKE     SUNNY     83  73  71 S9G17     30.15F
HUTCHINSON     SUNNY     81  72  76 S8G18     30.17F
$$
MNZ037-044-045-052-053-291900-
   East Central Minnesota

CITY           SKY/WX    TMP DP  RH WIND       PRES   REMARKS
PRINCETON      SUNNY     84  70  61 S10G17    30.14R
MORA           SUNNY     79  64  61 SW8       30.16S
CAMBRIDGE      SUNNY     84  70  61 S12G21    30.12S
RUSH CITY      RAIN      83  68  59 S8        30.14S
MOOSE LAKE     CLOUDY    75  64  69 SW6       30.13S
HINCKLEY       FAIR      79  70  73 SW6       30.14F
CLOQUET        CLOUDY    73  63  68 SW7       30.15R
MCGREGOR       PTSUNNY   77  64  65 SW9       30.15S
$$
MNZ071>073-080-081-089-090-097-098-291900-
   Southwest Minnesota

CITY           SKY/WX    TMP DP  RH WIND       PRES   REMARKS
MONTEVIDEO     CLOUDY    82  72  69 SW12G17   30.17S
GRANITE FALLS  MOSUNNY   82  72  72 SE13      30.18F
CANBY          MOSUNNY   80  70  72 SE13      30.17F
MARSHALL       MOSUNNY   79  71  76 SE12      30.18F
REDWOOD FALLS  CLOUDY    81  70  69 S13       30.17F
OLIVIA         MOSUNNY   79  70  73 S16       30.16F
PIPESTONE      MOSUNNY   79  70  73 SW8       30.21F
WINDOM         CLOUDY    79  70  73 CALM      30.21F
WORTHINGTON    MOSUNNY   79  71  76 S8        30.23F
JACKSON        MOSUNNY   82  68  61 S6        30.22F
TRACY          MOSUNNY   79  72  79 S9        30.20F
SLAYTON        CLOUDY    79  72  78 SE5       30.22F
$$
MNZ065>067-074>077-082>085-091>093-291900-
   South Central Minnesota

CITY           SKY/WX    TMP DP  RH WIND       PRES   REMARKS
MANKATO          N/A    N/A N/A N/A MISG        N/A
NEW ULM        MOSUNNY   79  72  78 S10       30.19F
ST JAMES       CLOUDY    73  66  78 E6        30.21F
FAIRMONT       MOSUNNY   81  74  79 S9        30.21F
GLENCOE        CLOUDY    82  73  73 S9G16     30.17S
FARIBAULT      CLOUDY    81  72  74 SE3       30.21F
OWATONNA       MOSUNNY   81  70  69 SE5       30.20F
WASECA         MOSUNNY   79  72  78 SE9       30.22F
ALBERT LEA     PTSUNNY   82  73  74 SE6       30.23S
$$
MNZ078>079-086>088-094>096-291900-
   Southeast Minnesota

CITY           SKY/WX    TMP DP  RH WIND       PRES   REMARKS
ROCHESTER      MOSUNNY   82  70  66 CALM      30.23F
6HR MIN TEMP:  65; 6HR MAX TEMP:  82;

RED WING       PTSUNNY   79  70  73 S12       30.17F
STANTON        CLOUDY    77  70  78 SE8       30.19F
DODGE CENTER   MOSUNNY   82  70  65 SE6       30.22F
WINONA         PTSUNNY   79  70  73 CALM      30.22F
AUSTIN         CLOUDY    81  72  74 S6        30.23S
PRESTON        CLOUDY    80  69  68 CALM      30.25F
$$
ABBREVIATIONS USED IN REMARKS
   TC - TEMPERATURES IN CELSIUS
  WCI - WIND CHILL INDEX
   HX - HEAT INDEX
  VSB - VISIBILITY
$$




USA.gov is the U.S. government's official web portal to all federal, state and local government web resources and services.